Time,TemperatureF,DewpointF,PressureIn,WindDirection,WindDirectionDegrees,WindSpeedMPH,WindSpeedGustMPH,Humidity,HourlyPrecipIn,Conditions,Clouds,dailyrainin,SoftwareType,DateUTC
2013-09-26 00:13:00,44.3,42.0,29.98,WNW,286,0.0,0.0,93,0.00,,,0.00,weatherlink.com 1.10,2013-09-26 04:13:00,
2013-09-26 00:28:00,43.9,43.0,29.99,WNW,286,0.0,0.0,95,0.00,,,0.00,weatherlink.com 1.10,2013-09-26 04:28:00,
2013-09-26 00:43:00,44.0,43.0,29.99,WNW,286,0.0,1.0,95,0.00,,,0.00,weatherlink.com 1.10,2013-09-26 04:43:00,
2013-09-26 00:58:00,44.1,43.0,29.99,WNW,286,0.0,0.0,95,0.00,,,0.00,weatherlink.com 1.10,2013-09-26 04:58:00,
2013-09-26 01:13:00,44.0,43.0,30.00,WNW,286,0.0,0.0,95,0.00,,,0.00,weatherlink.com 1.10,2013-09-26 05:13:00,
2013-09-26 01:29:00,43.9,43.0,30.00,WNW,286,0.0,0.0,96,0.00,,,0.00,weatherlink.com 1.10,2013-09-26 05:29:00,
2013-09-26 01:44:00,43.6,43.0,30.00,WNW,286,0.0,2.0,96,0.00,,,0.00,weatherlink.com 1.10,2013-09-26 05:44:00,
2013-09-26 01:59:00,43.0,42.0,30.00,WNW,286,0.0,0.0,95,0.00,,,0.00,weatherlink.com 1.10,2013-09-26 05:59:00,
2013-09-26 02:14:00,43.4,42.0,30.00,WNW,286,0.0,0.0,96,0.00,,,0.00,weatherlink.com 1.10,2013-09-26 06:14:00,
2013-09-26 02:29:00,43.3,42.0,30.00,WNW,286,0.0,0.0,96,0.00,,,0.00,weatherlink.com 1.10,2013-09-26 06:29:00,
2013-09-26 02:44:00,43.1,42.0,30.00,WNW,286,0.0,0.0,96,0.00,,,0.00,weatherlink.com 1.10,2013-09-26 06:44:00,
2013-09-26 02:59:00,42.1,41.0,30.01,WNW,286,0.0,0.0,95,0.00,,,0.00,weatherlink.com 1.10,2013-09-26 06:59:00,
2013-09-26 03:14:00,42.4,41.0,30.01,WNW,286,0.0,0.0,96,0.00,,,0.00,weatherlink.com 1.10,2013-09-26 07:14:00,
2013-09-26 03:29:00,43.3,43.0,30.01,WNW,286,0.0,0.0,97,0.00,,,0.00,weatherlink.com 1.10,2013-09-26 07:29:00,
2013-09-26 03:44:00,43.8,43.0,30.01,WNW,286,0.0,1.0,97,0.00,,,0.00,weatherlink.com 1.10,2013-09-26 07:44:00,
2013-09-26 03:59:00,44.2,43.0,30.01,WNW,286,0.0,0.0,97,0.00,,,0.00,weatherlink.com 1.10,2013-09-26 07:59:00,
2013-09-26 04:14:00,43.1,42.0,30.01,WNW,286,0.0,4.0,96,0.00,,,0.00,weatherlink.com 1.10,2013-09-26 08:14:00,
2013-09-26 04:29:00,42.4,41.0,30.01,WNW,286,0.0,0.0,96,0.00,,,0.00,weatherlink.com 1.10,2013-09-26 08:29:00,
2013-09-26 04:44:00,42.0,41.0,30.01,WNW,286,0.0,0.0,96,0.00,,,0.00,weatherlink.com 1.10,2013-09-26 08:44:00,
2013-09-26 04:59:00,41.5,41.0,30.01,WNW,286,0.0,0.0,96,0.00,,,0.00,weatherlink.com 1.10,2013-09-26 08:59:00,
2013-09-26 05:14:00,41.4,40.0,30.01,WNW,286,0.0,0.0,96,0.00,,,0.00,weatherlink.com 1.10,2013-09-26 09:14:00,
2013-09-26 05:29:00,41.5,41.0,30.02,WNW,286,0.0,0.0,97,0.00,,,0.00,weatherlink.com 1.10,2013-09-26 09:29:00,
2013-09-26 05:44:00,40.9,40.0,30.02,WNW,286,0.0,0.0,96,0.00,,,0.00,weatherlink.com 1.10,2013-09-26 09:44:00,
2013-09-26 05:59:00,40.3,39.0,30.02,WNW,286,0.0,0.0,96,0.00,,,0.00,weatherlink.com 1.10,2013-09-26 09:59:00,
2013-09-26 06:14:00,40.3,40.0,30.03,WNW,286,0.0,0.0,97,0.00,,,0.00,weatherlink.com 1.10,2013-09-26 10:14:00,
2013-09-26 06:29:00,39.9,39.0,30.03,WNW,286,0.0,0.0,96,0.00,,,0.00,weatherlink.com 1.10,2013-09-26 10:29:00,
2013-09-26 06:44:00,39.5,39.0,30.04,WNW,286,0.0,0.0,97,0.00,,,0.00,weatherlink.com 1.10,2013-09-26 10:44:00,
2013-09-26 06:59:00,38.9,38.0,30.04,WNW,286,0.0,0.0,96,0.00,,,0.00,weatherlink.com 1.10,2013-09-26 10:59:00,
2013-09-26 07:14:00,39.4,39.0,30.05,WNW,286,0.0,0.0,97,0.00,,,0.00,weatherlink.com 1.10,2013-09-26 11:14:00,
2013-09-26 07:29:00,40.0,39.0,30.05,WNW,286,0.0,0.0,97,0.00,,,0.00,weatherlink.com 1.10,2013-09-26 11:29:00,
2013-09-26 07:45:00,43.2,43.0,30.05,WNW,286,0.0,1.0,98,0.00,,,0.00,weatherlink.com 1.10,2013-09-26 11:45:00,
2013-09-26 08:00:00,45.4,45.0,30.06,WNW,286,0.0,0.0,98,0.00,,,0.00,weatherlink.com 1.10,2013-09-26 12:00:00,
2013-09-26 08:15:00,46.4,46.0,30.06,WNW,286,0.0,1.0,98,0.00,,,0.00,weatherlink.com 1.10,2013-09-26 12:15:00,
2013-09-26 08:30:00,47.7,47.0,30.06,WNW,286,0.0,1.0,98,0.00,,,0.00,weatherlink.com 1.10,2013-09-26 12:30:00,
2013-09-26 08:45:00,48.5,48.0,30.07,ENE,61,0.0,3.0,96,0.00,,,0.00,weatherlink.com 1.10,2013-09-26 12:45:00,
2013-09-26 09:00:00,49.9,49.0,30.07,East,96,2.0,3.0,95,0.00,,,0.00,weatherlink.com 1.10,2013-09-26 13:00:00,
2013-09-26 09:15:00,51.2,49.0,30.07,ENE,57,3.0,5.0,93,0.00,,,0.00,weatherlink.com 1.10,2013-09-26 13:15:00,
2013-09-26 09:30:00,51.8,49.0,30.07,ENE,78,1.0,4.0,91,0.00,,,0.00,weatherlink.com 1.10,2013-09-26 13:30:00,
2013-09-26 09:45:00,52.3,50.0,30.08,East,93,0.0,3.0,91,0.00,,,0.00,weatherlink.com 1.10,2013-09-26 13:45:00,
2013-09-26 10:00:00,53.1,50.0,30.08,ESE,107,2.0,5.0,90,0.00,,,0.00,weatherlink.com 1.10,2013-09-26 14:00:00,
2013-09-26 10:15:00,53.3,51.0,30.08,East,91,2.0,5.0,90,0.00,,,0.00,weatherlink.com 1.10,2013-09-26 14:15:00,
2013-09-26 10:30:00,54.1,52.0,30.08,ENE,62,0.0,4.0,91,0.00,,,0.00,weatherlink.com 1.10,2013-09-26 14:30:00,
2013-09-26 10:45:00,55.3,52.0,30.08,SE,124,3.0,6.0,89,0.00,,,0.00,weatherlink.com 1.10,2013-09-26 14:45:00,
2013-09-26 11:00:00,56.0,53.0,30.08,SE,146,2.0,4.0,89,0.00,,,0.00,weatherlink.com 1.10,2013-09-26 15:00:00,
2013-09-26 11:16:00,57.7,53.0,30.08,East,97,3.0,5.0,84,0.00,,,0.00,weatherlink.com 1.10,2013-09-26 15:16:00,
2013-09-26 11:31:00,58.1,52.0,30.07,SE,144,0.0,3.0,80,0.00,,,0.00,weatherlink.com 1.10,2013-09-26 15:31:00,
2013-09-26 11:46:00,57.8,53.0,30.08,SE,135,1.0,5.0,83,0.00,,,0.00,weatherlink.com 1.10,2013-09-26 15:46:00,
2013-09-26 12:01:00,59.1,53.0,30.07,ESE,115,1.0,6.0,80,0.00,,,0.00,weatherlink.com 1.10,2013-09-26 16:01:00,
2013-09-26 12:16:00,59.9,53.0,30.07,SE,136,2.0,6.0,79,0.00,,,0.00,weatherlink.com 1.10,2013-09-26 16:16:00,
2013-09-26 12:31:00,60.8,53.0,30.07,East,101,2.0,6.0,76,0.00,,,0.00,weatherlink.com 1.10,2013-09-26 16:31:00,
2013-09-26 12:46:00,61.0,53.0,30.06,SSE,150,0.0,7.0,76,0.00,,,0.00,weatherlink.com 1.10,2013-09-26 16:46:00,
2013-09-26 13:01:00,61.8,55.0,30.06,East,80,3.0,6.0,77,0.00,,,0.00,weatherlink.com 1.10,2013-09-26 17:01:00,
2013-09-26 13:15:00,62.3,54.0,30.06,East,87,0.0,5.0,73,0.00,,,0.00,weatherlink.com 1.10,2013-09-26 17:15:00,
2013-09-26 13:30:00,63.2,54.0,30.05,South,175,3.0,4.0,71,0.00,,,0.00,weatherlink.com 1.10,2013-09-26 17:30:00,
2013-09-26 13:45:00,63.8,53.0,30.05,East,93,0.0,5.0,69,0.00,,,0.00,weatherlink.com 1.10,2013-09-26 17:45:00,
2013-09-26 14:00:00,64.5,54.0,30.05,South,178,5.0,7.0,68,0.00,,,0.00,weatherlink.com 1.10,2013-09-26 18:00:00,
2013-09-26 14:15:00,64.7,53.0,30.04,SSW,200,0.0,3.0,66,0.00,,,0.00,weatherlink.com 1.10,2013-09-26 18:15:00,
2013-09-26 14:30:00,65.5,54.0,30.04,SSE,153,0.0,1.0,66,0.00,,,0.00,weatherlink.com 1.10,2013-09-26 18:30:00,
2013-09-26 14:45:00,66.3,53.0,30.04,NE,40,1.0,5.0,63,0.00,,,0.00,weatherlink.com 1.10,2013-09-26 18:45:00,
2013-09-26 15:00:00,66.8,54.0,30.04,WSW,242,0.0,5.0,63,0.00,,,0.00,weatherlink.com 1.10,2013-09-26 19:00:00,
2013-09-26 15:16:00,67.8,55.0,30.04,SSW,207,4.0,5.0,63,0.00,,,0.00,weatherlink.com 1.10,2013-09-26 19:16:00,
2013-09-26 15:31:00,67.2,55.0,30.03,SSW,207,0.0,7.0,65,0.00,,,0.00,weatherlink.com 1.10,2013-09-26 19:31:00,
2013-09-26 15:46:00,67.4,55.0,30.04,West,259,0.0,5.0,65,0.00,,,0.00,weatherlink.com 1.10,2013-09-26 19:46:00,
2013-09-26 16:01:00,67.0,55.0,30.04,WSW,252,1.0,8.0,65,0.00,,,0.00,weatherlink.com 1.10,2013-09-26 20:01:00,
2013-09-26 16:16:00,67.2,55.0,30.04,SSW,211,4.0,6.0,64,0.00,,,0.00,weatherlink.com 1.10,2013-09-26 20:16:00,
2013-09-26 16:31:00,67.4,55.0,30.04,SW,224,0.0,3.0,64,0.00,,,0.00,weatherlink.com 1.10,2013-09-26 20:31:00,
2013-09-26 16:46:00,67.8,55.0,30.04,SW,229,0.0,4.0,64,0.00,,,0.00,weatherlink.com 1.10,2013-09-26 20:46:00,
2013-09-26 17:01:00,68.0,54.0,30.04,SW,228,0.0,3.0,61,0.00,,,0.00,weatherlink.com 1.10,2013-09-26 21:01:00,
2013-09-26 17:16:00,68.6,54.0,30.04,SW,229,0.0,0.0,60,0.00,,,0.00,weatherlink.com 1.10,2013-09-26 21:16:00,
2013-09-26 17:31:00,67.6,55.0,30.04,SW,227,0.0,4.0,64,0.00,,,0.00,weatherlink.com 1.10,2013-09-26 21:31:00,
2013-09-26 17:46:00,65.9,55.0,30.04,SW,227,0.0,1.0,67,0.00,,,0.00,weatherlink.com 1.10,2013-09-26 21:46:00,
2013-09-26 18:01:00,64.9,54.0,30.05,SW,227,0.0,0.0,69,0.00,,,0.00,weatherlink.com 1.10,2013-09-26 22:01:00,
2013-09-26 18:16:00,63.8,55.0,30.05,SW,227,0.0,0.0,72,0.00,,,0.00,weatherlink.com 1.10,2013-09-26 22:16:00,
2013-09-26 18:31:00,62.1,55.0,30.06,SW,227,0.0,0.0,78,0.00,,,0.00,weatherlink.com 1.10,2013-09-26 22:31:00,
2013-09-26 18:46:00,60.1,55.0,30.06,SW,227,0.0,1.0,82,0.00,,,0.00,weatherlink.com 1.10,2013-09-26 22:46:00,
2013-09-26 19:01:00,58.2,53.0,30.06,SW,227,0.0,1.0,84,0.00,,,0.00,weatherlink.com 1.10,2013-09-26 23:01:00,
2013-09-26 19:16:00,56.9,53.0,30.06,SW,227,0.0,0.0,86,0.00,,,0.00,weatherlink.com 1.10,2013-09-26 23:16:00,
2013-09-26 19:31:00,55.3,52.0,30.07,SW,227,0.0,1.0,88,0.00,,,0.00,weatherlink.com 1.10,2013-09-26 23:31:00,
2013-09-26 19:46:00,54.2,51.0,30.08,SW,227,0.0,0.0,89,0.00,,,0.00,weatherlink.com 1.10,2013-09-26 23:46:00,
2013-09-26 20:01:00,52.7,50.0,30.09,SW,227,0.0,0.0,90,0.00,,,0.00,weatherlink.com 1.10,2013-09-27 00:01:00,
2013-09-26 20:16:00,51.8,50.0,30.09,SW,227,0.0,0.0,92,0.00,,,0.00,weatherlink.com 1.10,2013-09-27 00:16:00,
2013-09-26 20:31:00,51.5,49.0,30.09,SW,227,0.0,2.0,92,0.00,,,0.00,weatherlink.com 1.10,2013-09-27 00:31:00,
2013-09-26 20:46:00,50.9,49.0,30.09,SW,225,0.0,5.0,92,0.00,,,0.00,weatherlink.com 1.10,2013-09-27 00:46:00,
2013-09-26 21:01:00,50.3,48.0,30.10,SW,225,0.0,1.0,93,0.00,,,0.00,weatherlink.com 1.10,2013-09-27 01:01:00,
2013-09-26 21:16:00,52.3,50.0,30.11,East,98,2.0,4.0,92,0.00,,,0.00,weatherlink.com 1.10,2013-09-27 01:16:00,
2013-09-26 21:31:00,54.1,50.0,30.11,ENE,65,0.0,4.0,87,0.00,,,0.00,weatherlink.com 1.10,2013-09-27 01:31:00,
2013-09-26 21:46:00,54.4,50.0,30.12,SE,134,0.0,4.0,86,0.00,,,0.00,weatherlink.com 1.10,2013-09-27 01:46:00,
2013-09-26 22:01:00,54.1,50.0,30.12,East,93,2.0,2.0,87,0.00,,,0.00,weatherlink.com 1.10,2013-09-27 02:01:00,
2013-09-26 22:16:00,52.9,49.0,30.12,East,86,0.0,0.0,87,0.00,,,0.00,weatherlink.com 1.10,2013-09-27 02:16:00,
2013-09-26 22:31:00,51.3,48.0,30.12,East,86,0.0,0.0,89,0.00,,,0.00,weatherlink.com 1.10,2013-09-27 02:31:00,
2013-09-26 22:46:00,49.0,46.0,30.13,East,86,0.0,0.0,90,0.00,,,0.00,weatherlink.com 1.10,2013-09-27 02:46:00,
2013-09-26 23:01:00,47.6,45.0,30.13,East,86,0.0,1.0,91,0.00,,,0.00,weatherlink.com 1.10,2013-09-27 03:01:00,
2013-09-26 23:16:00,46.4,45.0,30.13,East,86,0.0,1.0,94,0.00,,,0.00,weatherlink.com 1.10,2013-09-27 03:16:00,
2013-09-26 23:31:00,46.2,45.0,30.13,East,86,0.0,2.0,94,0.00,,,0.00,weatherlink.com 1.10,2013-09-27 03:31:00,
2013-09-26 23:46:00,45.8,45.0,30.13,East,86,0.0,0.0,95,0.00,,,0.00,weatherlink.com 1.10,2013-09-27 03:46:00,